This is the latest recevied weather packets stored in our database for station/object SQ7IQO. If no packets are shown the sender has not sent any weather packets the latest 10 day(s).
| Time | Temp. | Humidity | Pressure | Rain* | Wind** | Luminosity | Snow |
|---|---|---|---|---|---|---|---|
| 1787402331 | 20° C | - | - | 0 mm | 0.89 m/s, ° | - | - |
| 1787402271 | 20° C | - | - | 0 mm | 1.79 m/s, ° | - | - |
| 1787402211 | 20.56° C | - | - | 0 mm | 1.79 m/s, ° | - | - |
| 1787402151 | 20.56° C | - | - | 0 mm | 0.89 m/s, ° | - | - |
| 1787402091 | 20.56° C | - | - | 0 mm | 2.24 m/s, ° | - | - |
| 1787402031 | 21.11° C | - | - | 0 mm | 2.68 m/s, ° | - | - |
| 1787401971 | 21.11° C | - | - | 0 mm | 2.24 m/s, ° | - | - |
| 1787401911 | 21.67° C | - | - | 0 mm | 2.24 m/s, ° | - | - |
| 1787401851 | 22.22° C | - | - | 0 mm | 1.34 m/s, ° | - | - |
| 1787401791 | 22.78° C | - | - | 0 mm | 1.79 m/s, ° | - | - |
| 1787401731 | 22.78° C | - | - | 0 mm | 0.89 m/s, ° | - | - |
| 1787401671 | 22.22° C | - | - | 0 mm | 0.89 m/s, ° | - | - |
| 1787401611 | 21.67° C | - | - | 0 mm | 0 m/s | - | - |
| 1787401551 | 20.56° C | - | - | 0 mm | 0.45 m/s, ° | - | - |
| 1787401491 | 20° C | - | - | 0 mm | 1.34 m/s, ° | - | - |
| 1787401431 | 19.44° C | - | - | 0 mm | 1.34 m/s, ° | - | - |
| 1787401371 | 19.44° C | - | - | 0 mm | 1.79 m/s, ° | - | - |
| 1787401311 | 19.44° C | - | - | 0 mm | 1.34 m/s, ° | - | - |
| 1787401251 | 19.44° C | - | - | 0 mm | 1.79 m/s, ° | - | - |
| 1787401191 | 19.44° C | - | - | 0 mm | 1.79 m/s, ° | - | - |
| 1787401131 | 18.89° C | - | - | 0 mm | 0.89 m/s, ° | - | - |
| 1787401071 | 18.89° C | - | - | 0 mm | 1.34 m/s, ° | - | - |
| 1787401011 | 19.44° C | - | - | 0 mm | 1.79 m/s, ° | - | - |
| 1787400951 | 19.44° C | - | - | 0 mm | 1.79 m/s, ° | - | - |
| 1787400891 | 20° C | - | - | 0 mm | 1.79 m/s, ° | - | - |
* Rain latest hour (hover to see other rain measurements)
** Current wind speed in m/s (hover to see current wind gust speed)